Stations météo

réclame
Mon MeteoGroup
Nürburg/Barweiler, Allemagne (10506): Température de l'air & dewpoint: 18.05.2019 03:00:00 - 24.05.2019 03:00:00 (CEST)Nürburg/Barweiler, Allemagne (10506): Température de l'air 5cm & Température de l'air -5cm: 18.05.2019 03:00:00 - 24.05.2019 03:00:00 (CEST)Nürburg/Barweiler, Allemagne (10506): Température de l'air -20cm & Température de l'air -100cm: 18.05.2019 03:00:00 - 24.05.2019 03:00:00 (CEST)Nürburg/Barweiler, Allemagne (10506): Vitesse du vent & gusts: 18.05.2019 03:00:00 - 24.05.2019 03:00:00 (CEST)Nürburg/Barweiler, Allemagne (10506): Direction du vent: 18.05.2019 03:00:00 - 24.05.2019 03:00:00 (CEST)Nürburg/Barweiler, Allemagne (10506): reduced air pressure: 18.05.2019 03:00:00 - 24.05.2019 03:00:00 (CEST)Nürburg/Barweiler, Allemagne (10506): visibility: 18.05.2019 03:00:00 - 24.05.2019 03:00:00 (CEST)Nürburg/Barweiler, Allemagne (10506): Ensoleillement: 18.05.2019 03:00:00 - 24.05.2019 03:00:00 (CEST)Nürburg/Barweiler, Allemagne (10506): Quantités de précipitations: 18.05.2019 03:00:00 - 24.05.2019 03:00:00 (CEST)
Date & Time tt [°C] td [°C] tt 5cm [°C] tt -5cm [°C] tt -20cm [°C] tt -100cm [°C] ff [km/h] ff [knt] fx [km/h] fx [knt] dd ppp [hPa] vv [km] sd [min] rr [mm]
24.05.2019 03:00:00 12,1 5,7 9,6 11,7 14,1 10,3 0 0 8 4 N 1016,6 48 0 0,0
24.05.2019 02:00:00 12,7 5,5 9,2 12,4 14,3 10,3 3 2 6 3 ENE 1016,9 47 0 0,0
24.05.2019 01:00:00 13,2 5,9 9,9 13,1 14,5 10,3 3 2 5 3 W 1017,1 50 0 0,0
24.05.2019 00:00:00 14,0 5,3 11,0 13,9 14,7 10,3 4 2 10 6 NNW 1017,2 53 0 0,0
23.05.2019 23:00:00 14,5 6,0 12,2 14,5 14,9 10,3 6 3 9 5 N 1017,2 59 0 0,0
23.05.2019 22:00:00 14,9 6,7 11,5 15,5 14,9 10,3 6 3 11 6 NE 1016,8 56 0 0,0
23.05.2019 21:00:00 16,1 7,4 13,9 17,1 14,9 10,3 9 5 18 10 N 1016,3 61 25 0,0
23.05.2019 20:00:00 18,0 6,5 16,7 18,3 14,7 10,3 5 3 18 10 W 1015,8 61 41 0,0
23.05.2019 19:00:00 19,3 6,1 19,4 19,3 14,5 10,3 6 3 21 11 W 1015,7 57 32 0,0
23.05.2019 18:00:00 18,4 5,1 18,8 19,7 14,2 10,3 4 2 16 9 W 1016,2 52 23 0,0
23.05.2019 17:00:00 18,8 5,9 21,8 20,4 13,8 10,3 7 4 19 10 WNW 1016,5 42 31 0,0
23.05.2019 16:00:00 18,1 4,8 19,1 20,9 13,4 10,3 12 6 18 10 WSW 1016,9 48 37 0,0
23.05.2019 15:00:00 17,8 6,2 19,3 19,5 13,0 10,3 6 3 17 9 W 1017,6 47 16 0,0
23.05.2019 14:00:00 16,7 6,3 17,8 18,9 12,5 10,3 10 5 18 10 W 1018,1 45 3 0,0
23.05.2019 13:00:00 17,6 5,0 20,2 20,1 12,1 10,3 10 5 19 11 SW 1018,4 62 42 0,0
23.05.2019 12:00:00 16,7 4,9 20,5 18,1 11,7 10,3 - - - - - 1018,9 28 42 0,0
23.05.2019 11:00:00 15,4 6,4 16,5 16,1 11,4 10,3 11 6 19 10 W 1019,3 29 39 0,0
23.05.2019 10:00:00 14,9 7,1 16,0 14,6 11,3 10,3 6 3 12 6 WSW 1019,5 29 60 0,0
23.05.2019 09:00:00 12,5 7,2 13,7 12,0 11,3 10,3 6 3 11 6 SSW 1020,0 19 55 0,0
23.05.2019 08:00:00 8,4 6,8 9,0 9,9 11,5 10,3 4 2 7 4 WSW 1020,6 12 8 0,0
23.05.2019 07:00:00 7,5 6,3 7,4 9,0 11,7 10,3 3 2 7 4 SSW 1020,6 9 0 0,0
23.05.2019 06:00:00 6,6 5,7 4,9 8,9 11,9 10,3 4 2 7 4 SSW 1020,9 12 0 0,0
23.05.2019 05:00:00 7,6 6,1 7,0 9,2 12,1 10,3 4 2 9 5 SSW 1020,8 16 0 0,0
23.05.2019 04:00:00 7,1 6,1 5,7 9,1 12,4 10,3 3 1 8 4 SW 1021,3 14 0 0,0
23.05.2019 03:00:00 8,3 6,1 5,6 9,7 12,6 10,3 5 3 9 5 S 1021,1 18 0 0,0
23.05.2019 02:00:00 8,9 6,3 6,7 10,1 12,9 10,3 5 3 9 5 SSW 1021,2 19 0 0,0
23.05.2019 01:00:00 8,2 6,5 6,2 10,8 13,1 10,3 5 3 9 5 W 1021,4 19 0 0,0
23.05.2019 00:00:00 10,0 6,8 8,2 11,5 13,4 10,3 8 5 11 6 S 1020,9 20 0 0,0
22.05.2019 23:00:00 11,2 6,9 9,0 12,4 13,5 10,3 7 4 8 5 S 1020,6 23 0 0,0
22.05.2019 22:00:00 12,7 6,3 8,7 13,6 13,6 10,3 0 0 3 2 N 1020,1 22 0 0,0
22.05.2019 21:00:00 13,7 6,7 12,3 15,0 13,6 10,3 2 1 10 5 N 1019,7 24 0 0,0
22.05.2019 20:00:00 14,2 6,9 13,2 16,1 13,5 10,3 5 3 19 10 NNW 1019,4 26 48 0,0
22.05.2019 19:00:00 14,7 6,8 16,2 17,2 13,3 10,3 10 5 19 11 NNE 1019,5 30 35 0,0
22.05.2019 18:00:00 14,5 6,0 15,6 17,7 12,9 10,3 9 5 21 12 NW 1019,6 29 21 0,0
22.05.2019 17:00:00 15,3 5,5 18,1 18,3 12,5 10,3 14 8 26 14 N 1019,6 29 34 0,0
22.05.2019 16:00:00 14,2 4,9 15,4 19,3 12,0 10,3 18 10 29 16 NW 1019,6 30 54 0,0
22.05.2019 15:00:00 15,0 6,2 19,2 18,8 11,5 10,3 16 8 29 16 NNW 1019,6 23 60 0,0
22.05.2019 14:00:00 13,2 4,5 17,2 18,0 11,0 10,3 16 9 25 13 N 1019,9 13 59 0,0
22.05.2019 13:00:00 12,2 6,2 16,4 16,5 10,7 10,3 10 6 18 10 NW 1020,2 14 55 0,0
22.05.2019 12:00:00 9,4 5,2 11,3 13,3 10,5 10,3 7 4 19 10 NNW 1020,8 13 9 0,0
22.05.2019 11:00:00 8,7 5,3 11,1 11,4 10,5 10,3 14 7 21 11 N 1020,5 19 2 0,0
22.05.2019 10:00:00 7,6 4,9 9,1 10,0 10,5 10,3 12 7 21 11 NW 1020,4 16 0 0,0
22.05.2019 09:00:00 7,0 5,1 8,0 9,4 10,5 10,2 9 5 20 11 NW 1020,3 11 0 0,0
22.05.2019 08:00:00 7,0 6,2 7,2 9,1 10,6 10,2 8 4 23 12 NW 1019,9 7 0 0,0
22.05.2019 07:00:00 7,6 7,1 7,6 9,2 10,7 10,2 11 6 20 11 NW 1019,1 5 0 0,0
22.05.2019 06:00:00 8,0 7,8 7,9 9,4 10,7 10,2 8 4 18 10 WNW 1018,7 3,3 0 0,0
22.05.2019 05:00:00 8,3 7,9 8,1 9,5 10,8 10,2 10 5 20 11 WNW 1018,4 3,6 0 0,0
22.05.2019 04:00:00 8,5 8,1 8,3 9,5 10,9 10,2 7 4 22 12 NW 1018,4 4,1 0 0,0
22.05.2019 03:00:00 8,6 8,0 8,3 9,6 10,9 10,2 10 5 19 10 NW 1018,1 4,4 0 0,0
22.05.2019 02:00:00 8,8 8,2 8,4 9,7 11,0 10,2 8 4 21 12 WNW 1017,8 3,6 0 0,0
22.05.2019 01:00:00 9,0 8,3 8,6 9,8 11,1 10,2 9 5 21 11 WNW 1017,9 3,6 0 0,0
22.05.2019 00:00:00 9,2 8,3 8,6 9,9 11,1 10,2 9 5 21 11 NW 1017,9 6 0 0,0
21.05.2019 23:00:00 9,7 8,9 9,1 10,3 11,2 10,2 10 5 19 10 WNW 1017,6 4,9 0 0,0
21.05.2019 22:00:00 9,9 9,0 9,0 10,4 11,2 10,2 11 6 21 11 WNW 1017,3 6 0 0,0
21.05.2019 21:00:00 10,0 9,2 9,7 10,7 11,2 10,2 6 4 18 10 WNW 1016,7 4,5 0 0,2
21.05.2019 20:00:00 9,8 9,3 9,6 10,8 11,2 10,2 11 6 24 13 W 1016,4 3,1 0 0,3
21.05.2019 19:00:00 10,1 9,4 9,9 10,9 11,2 10,2 14 7 23 12 W 1015,9 4,0 0 0,1
21.05.2019 18:00:00 10,0 9,0 9,7 10,9 11,3 10,2 11 6 22 12 WNW 1015,7 6 0 0,0
21.05.2019 17:00:00 9,7 9,0 9,7 11,0 11,3 10,2 10 5 31 17 NW 1015,6 9 0 0,0
21.05.2019 16:00:00 9,7 8,9 9,6 11,0 11,2 10,2 14 8 24 13 WNW 1014,9 16 0 0,1
21.05.2019 15:00:00 9,2 8,7 9,3 11,0 11,2 10,2 15 8 31 17 WNW 1014,4 6 0 0,9
21.05.2019 14:00:00 9,1 8,6 9,3 11,0 11,2 10,2 15 8 32 18 WNW 1014,0 6 0 0,3
21.05.2019 13:00:00 9,4 8,9 9,8 10,8 11,3 10,2 14 8 29 16 NW 1013,5 10 0 1,1
21.05.2019 12:00:00 9,3 9,0 9,5 10,6 11,3 10,2 16 8 33 18 WNW 1012,9 4,6 0 0,4
21.05.2019 11:00:00 9,4 9,0 9,3 10,5 11,3 10,2 15 8 29 16 WNW 1012,1 8 0 0,1
21.05.2019 10:00:00 9,3 9,0 9,3 10,3 11,4 10,2 15 8 34 18 WNW 1011,4 8 0 0,5
21.05.2019 09:00:00 9,1 8,6 8,9 10,2 11,5 10,1 16 9 32 18 NW 1011,0 16 0 0,4
21.05.2019 08:00:00 9,2 9,0 9,1 10,2 11,5 10,1 16 9 31 17 WNW 1010,7 2,5 0 0,7
21.05.2019 07:00:00 9,3 9,1 9,1 10,2 11,6 10,1 15 8 37 20 NW 1010,1 7 0 0,0
21.05.2019 06:00:00 9,2 9,0 9,0 10,3 11,7 10,1 18 10 31 17 WNW 1009,9 4,1 0 0,0
21.05.2019 05:00:00 9,2 9,1 9,1 10,5 11,8 10,1 15 8 31 17 WNW 1009,6 2,4 0 0,0
21.05.2019 04:00:00 9,7 9,5 9,5 10,7 11,9 10,1 16 9 30 16 WNW 1009,6 2,7 0 0,0
21.05.2019 03:00:00 9,9 9,6 9,7 10,7 11,9 10,1 13 7 29 16 NW 1009,7 3,2 0 0,0
21.05.2019 02:00:00 10,0 9,8 9,7 10,9 12,0 10,1 15 8 30 16 WNW 1009,7 4,4 0 0,0
21.05.2019 01:00:00 10,1 9,8 9,9 11,0 12,1 10,1 15 8 29 16 NW 1009,6 2,3 0 0,0
21.05.2019 00:00:00 10,4 9,6 10,1 11,1 12,2 10,1 12 7 24 13 NW 1009,7 4,5 0 0,0
20.05.2019 23:00:00 10,4 9,7 10,0 11,3 12,3 10,1 13 7 25 14 NW 1009,7 3,9 0 0,0
20.05.2019 22:00:00 10,3 9,7 10,0 11,5 12,4 10,1 14 7 39 21 NW 1009,7 2,8 0 0,0
20.05.2019 21:00:00 10,6 9,8 10,3 11,9 12,4 10,1 17 9 31 17 NNW 1009,3 3,4 0 0,0
20.05.2019 20:00:00 11,1 9,7 10,7 12,4 12,4 10,0 18 10 29 16 NW 1008,7 6 0 0,0
20.05.2019 19:00:00 11,4 10,0 11,4 12,9 12,4 10,0 14 8 26 14 NNW 1008,4 5 0 0,0
20.05.2019 18:00:00 11,6 10,2 11,7 13,1 12,3 10,0 15 8 26 14 NW 1008,4 6 0 0,0
20.05.2019 17:00:00 12,1 10,6 12,0 13,5 12,3 10,0 14 8 25 14 NW 1007,9 7 0 0,0
20.05.2019 16:00:00 12,3 11,5 12,9 13,5 12,2 10,0 13 7 20 11 NNW 1007,8 3,9 0 0,2
20.05.2019 15:00:00 11,8 11,2 12,4 13,4 12,1 10,0 9 5 17 9 NNW 1007,9 2,7 0 1,3
20.05.2019 14:00:00 11,4 11,0 12,2 13,1 12,0 10,0 10 6 21 11 NNW 1008,0 2,7 0 1,3
20.05.2019 13:00:00 11,4 10,8 12,1 12,9 12,0 10,0 11 6 24 13 N 1007,8 2,4 0 0,2
20.05.2019 12:00:00 11,9 10,5 12,7 12,9 11,9 10,0 10 5 25 14 NNW 1007,5 5 0 0,0
20.05.2019 11:00:00 11,1 10,3 12,0 12,3 11,9 10,0 15 8 24 13 NNW 1007,5 3,3 0 0,0
20.05.2019 10:00:00 11,2 9,7 11,5 11,6 11,9 10,0 15 8 23 13 N 1007,1 6 0 0,0
20.05.2019 09:00:00 10,4 9,7 10,2 11,1 12,0 9,9 10 5 22 12 NNW 1007,0 3,8 0 0,0
20.05.2019 08:00:00 10,0 9,8 10,0 10,6 12,1 9,9 11 6 21 11 NNW 1006,7 1,5 0 0,0
20.05.2019 07:00:00 9,6 9,5 9,6 10,3 12,3 9,9 10 5 21 11 NNW 1006,6 0,9 0 0,0
20.05.2019 06:00:00 9,1 8,9 9,1 10,1 12,5 9,9 9 5 19 10 NNW 1006,6 1,1 0 0,0
20.05.2019 05:00:00 9,3 9,0 8,2 9,5 12,7 9,9 6 3 12 7 N 1006,1 2,3 0 0,0
20.05.2019 04:00:00 9,3 9,2 6,9 9,9 13,0 9,9 6 3 8 5 N 1006,2 1,5 0 0,0
20.05.2019 03:00:00 10,0 9,7 7,2 10,5 13,2 9,9 3 2 8 5 NNW 1006,1 2,3 0 0,0
20.05.2019 02:00:00 10,1 9,5 8,2 11,4 13,4 9,9 8 4 22 12 N 1006,2 2,8 0 0,0
20.05.2019 01:00:00 10,4 9,6 9,3 11,7 13,6 9,9 11 6 15 8 N 1006,5 4,6 0 0,0
20.05.2019 00:00:00 11,5 9,8 10,2 12,6 13,8 9,9 10 5 17 9 N 1006,4 10 0 0,0
19.05.2019 23:00:00 12,8 9,0 11,6 13,2 13,9 9,9 10 5 16 8 NNE 1006,2 34 0 0,0
19.05.2019 22:00:00 13,3 8,6 10,5 14,0 14,0 9,9 4 2 6 4 N 1005,4 47 0 0,0
19.05.2019 21:00:00 14,7 8,7 12,4 14,9 14,0 9,9 3 1 11 6 WNW 1004,6 55 13 0,0
19.05.2019 20:00:00 14,9 7,9 13,5 15,9 13,9 9,8 8 4 17 9 N 1004,3 62 60 0,0
19.05.2019 19:00:00 15,7 7,6 15,9 17,1 13,8 9,8 12 7 27 15 NE 1004,2 67 60 0,0
19.05.2019 18:00:00 16,6 9,0 18,2 17,7 13,6 9,8 15 8 31 17 NNE 1004,1 53 12 0,0
19.05.2019 17:00:00 16,3 9,6 17,3 17,9 13,4 9,8 5 3 10 5 W 1004,5 62 0 0,0
19.05.2019 16:00:00 16,0 9,8 16,8 17,9 13,1 9,8 6 4 13 7 WSW 1004,5 56 0 0,0
19.05.2019 15:00:00 16,0 9,8 17,8 18,6 12,8 9,8 8 4 18 10 SSW 1004,5 53 0 0,0
19.05.2019 14:00:00 16,2 9,2 18,3 18,0 12,4 9,8 6 3 12 6 NW 1004,5 40 1 0,0
19.05.2019 13:00:00 15,6 11,4 16,8 17,3 12,2 9,8 5 3 12 6 SW 1004,8 18 1 0,0
19.05.2019 12:00:00 14,5 11,3 15,4 16,2 12,1 9,8 4 2 9 5 NNE 1005,0 11 4 0,0
19.05.2019 11:00:00 12,8 11,0 13,0 13,5 12,0 9,8 3 2 6 3 ENE 1005,7 4,7 0 0,1
19.05.2019 10:00:00 11,9 10,5 12,0 12,4 12,0 9,8 3 2 8 4 NE 1005,7 4,6 0 0,1
19.05.2019 09:00:00 11,3 10,2 11,2 11,8 12,1 9,8 5 3 9 5 NE 1005,8 4,0 0 0,1
19.05.2019 08:00:00 11,1 10,1 10,8 11,3 12,2 9,7 5 3 7 4 ENE 1005,7 5 0 0,0
19.05.2019 07:00:00 10,6 9,6 9,9 10,7 12,4 9,7 4 2 8 4 ENE 1005,7 5 0 0,0
19.05.2019 06:00:00 9,7 9,1 8,7 10,7 12,5 9,7 6 3 7 4 NE 1005,6 2,9 0 0,0
19.05.2019 05:00:00 10,3 9,5 9,3 11,0 12,7 9,7 2 1 6 4 NNW 1005,7 9 0 0,0
19.05.2019 04:00:00 10,0 9,5 9,0 11,2 12,8 9,7 4 2 7 4 WNW 1006,1 8 0 0,0
19.05.2019 03:00:00 10,1 9,5 9,6 11,6 13,0 9,7 5 3 8 4 WNW 1006,5 12 0 0,0
19.05.2019 02:00:00 11,1 9,6 10,2 12,0 13,2 9,7 5 3 13 7 S 1006,8 29 0 0,2
19.05.2019 01:00:00 11,1 9,4 10,3 12,1 13,4 9,7 10 5 16 9 S 1006,9 31 0 0,0
19.05.2019 00:00:00 11,1 9,2 9,9 12,5 13,5 9,7 5 3 9 5 NW 1006,8 44 0 0,0
18.05.2019 23:00:00 11,4 10,1 10,4 13,2 13,7 9,7 6 3 10 5 W 1006,9 24 0 0,0
18.05.2019 22:00:00 11,6 9,9 10,8 13,9 13,8 9,7 3 2 21 11 SSW 1007,3 28 0 0,4
18.05.2019 21:00:00 12,5 8,8 11,1 15,0 13,8 9,7 16 9 30 16 ENE 1006,8 9 0 0,0
18.05.2019 20:00:00 14,7 11,2 14,0 16,7 13,6 9,7 6 3 9 5 ENE 1005,6 49 0 0,0
18.05.2019 19:00:00 15,7 8,9 14,9 17,8 13,5 9,7 4 2 9 5 NNE 1005,2 67 33 0,0
18.05.2019 18:00:00 16,0 8,7 15,6 18,1 13,3 9,7 4 2 16 9 W 1005,2 54 19 0,0
18.05.2019 17:00:00 15,5 11,6 16,6 17,4 13,1 9,7 6 4 15 8 W 1005,5 35 2 0,6
18.05.2019 16:00:00 13,6 10,0 13,4 17,1 12,9 9,7 8 4 18 10 ESE 1005,7 15 0 0,7
18.05.2019 15:00:00 13,9 9,8 14,2 18,5 12,5 9,6 13 7 20 11 E 1006,0 38 8 0,0
18.05.2019 14:00:00 15,2 8,9 17,7 19,8 12,0 9,6 9 5 16 8 NNE 1005,7 38 18 0,0
18.05.2019 13:00:00 15,7 10,5 19,0 18,8 11,6 9,6 9 5 14 8 W 1005,4 29 17 0,0
18.05.2019 12:00:00 15,5 9,4 19,9 18,2 11,2 9,6 4 2 13 7 WSW 1005,6 22 37 0,0
18.05.2019 11:00:00 13,7 9,6 16,5 15,6 11,0 9,6 5 3 13 7 W 1005,8 16 5 0,0
18.05.2019 10:00:00 12,6 9,8 14,0 13,0 10,9 9,6 6 3 10 5 SW 1005,8 15 0 0,0
18.05.2019 09:00:00 10,9 9,3 11,9 11,6 11,0 9,6 4 2 8 4 W 1006,1 11 0 0,0
18.05.2019 08:00:00 10,7 8,3 10,8 10,4 11,0 9,6 5 3 11 6 SW 1005,8 16 0 0,0
18.05.2019 07:00:00 8,9 7,7 8,6 9,4 11,2 9,6 6 3 10 5 W 1006,1 8 0 0,0
18.05.2019 06:00:00 9,3 7,6 7,6 9,3 11,3 9,6 3 2 6 3 SSW 1005,9 13 0 0,0
18.05.2019 05:00:00 9,0 8,0 8,1 9,7 11,4 9,6 3 2 8 4 E 1006,0 13 0 0,0
18.05.2019 04:00:00 9,6 7,6 8,6 9,7 11,6 9,6 5 3 10 5 WSW 1006,1 15 0 0,0
18.05.2019 03:00:00 9,2 7,1 8,5 9,7 11,8 9,6 2 1 11 6 W 1006,3 21 0 0,0

tt = Température de l'air
td = dewpoint
tt 5cm = Température de l'air 5cm
tt -5cm = Température de l'air -5cm
tt -20cm = Température de l'air -20cm
tt -100cm = Température de l'air -100cm
ff = Vitesse du vent
fx = gusts
dd = Direction du vent
ppp = reduced air pressure
vv = visibility
sd = Ensoleillement
rr = Quantités de précipitations

stations d'obs. à proximité